Tiempo cada hora Barra de São Francisco

Hoy, 14 Mayo, Viernes

Tiempo Temperatura Precipitaciones Viento Presión Humedad
00:00 +19°C° 0 mm 1 mps 741 mmHg 96%
01:00 +19°C° 0 mm 1 mps 741 mmHg 96%
02:00 +17°C° 0 mm 0 mps 740 mmHg 95%
03:00 +16°C° 0 mm 0 mps 740 mmHg 95%
04:00 +16°C° 0 mm 0 mps 740 mmHg 95%
05:00 +16°C° 0 mm 0 mps 740 mmHg 95%
06:00 +16°C° 0 mm 0 mps 741 mmHg 95%
07:00 +20°C° 0 mm 1 mps 741 mmHg 85%
08:00 +22°C° 0 mm 1 mps 742 mmHg 75%
09:00 +24°C° 0 mm 2 mps 742 mmHg 65%
10:00 +25°C° 0 mm 2 mps 742 mmHg 63%
11:00 +26°C° 0 mm 2 mps 741 mmHg 60%
12:00 +26°C° 0 mm 2 mps 741 mmHg 57%
13:00 +26°C° 0.1 mm 2 mps 740 mmHg 58%
14:00 +26°C° 0.1 mm 2 mps 740 mmHg 59%
15:00 +26°C° 0.1 mm 2 mps 740 mmHg 60%
16:00 +24°C° 0.1 mm 2 mps 740 mmHg 66%
17:00 +23°C° 0.1 mm 2 mps 740 mmHg 71%
18:00 +22°C° 0.1 mm 1 mps 740 mmHg 77%
19:00 +21°C° 0 mm 1 mps 741 mmHg 80%
20:00 +20°C° 0 mm 1 mps 741 mmHg 83%
21:00 +20°C° 0 mm 1 mps 741 mmHg 86%
22:00 +19°C° 0 mm 1 mps 741 mmHg 87%
23:00 +19°C° 0 mm 1 mps 741 mmHg 87%

Mañana, 15 Mayo, Sábado

Tiempo Temperatura Precipitaciones Viento Presión Humedad
00:00 +19°C° 0 mm 1 mps 741 mmHg 88%
01:00 +19°C° 0 mm 1 mps 741 mmHg 87%
02:00 +19°C° 0 mm 1 mps 740 mmHg 87%
03:00 +19°C° 0 mm 1 mps 740 mmHg 87%
04:00 +16°C° 0 mm 0 mps 740 mmHg 88%
05:00 +16°C° 0 mm 0 mps 740 mmHg 89%
06:00 +16°C° 0 mm 0 mps 741 mmHg 90%
07:00 +20°C° 0 mm 1 mps 741 mmHg 81%
08:00 +22°C° 0 mm 1 mps 742 mmHg 73%
09:00 +24°C° 0 mm 2 mps 742 mmHg 64%
10:00 +25°C° 0 mm 1 mps 741 mmHg 59%
11:00 +27°C° 0 mm 1 mps 741 mmHg 53%
12:00 +28°C° 0 mm 1 mps 740 mmHg 48%
13:00 +28°C° 0 mm 1 mps 740 mmHg 48%
14:00 +28°C° 0 mm 1 mps 739 mmHg 48%
15:00 +28°C° 0 mm 1 mps 739 mmHg 48%
16:00 +26°C° 0 mm 1 mps 739 mmHg 55%
17:00 +24°C° 0 mm 2 mps 740 mmHg 62%
18:00 +22°C° 0 mm 3 mps 740 mmHg 68%
19:00 +21°C° 0 mm 2 mps 741 mmHg 71%
20:00 +22°C° 0 mm 1 mps 741 mmHg 74%
21:00 +21°C° 0 mm 1 mps 742 mmHg 76%
22:00 +21°C° 0 mm 1 mps 741 mmHg 78%
23:00 +20°C° 0 mm 1 mps 741 mmHg 80%

Pasado mañana, 16 Mayo, Domingo

Tiempo Temperatura Precipitaciones Viento Presión Humedad
00:00 +18°C° 0 mm 0 mps 741 mmHg 82%
01:00 +17°C° 0 mm 0 mps 741 mmHg 84%
02:00 +17°C° 0 mm 0 mps 740 mmHg 86%
03:00 +16°C° 0 mm 0 mps 740 mmHg 88%
04:00 +16°C° 0 mm 0 mps 740 mmHg 88%
05:00 +16°C° 0 mm 0 mps 740 mmHg 88%
06:00 +16°C° 0 mm 0 mps 740 mmHg 88%
07:00 +18°C° 0 mm 0 mps 741 mmHg 78%
08:00 +20°C° 0 mm 0 mps 741 mmHg 68%
09:00 +24°C° 0 mm 1 mps 742 mmHg 58%
10:00 +26°C° 0 mm 1 mps 741 mmHg 55%
11:00 +27°C° 0 mm 1 mps 741 mmHg 51%
12:00 +28°C° 0 mm 1 mps 741 mmHg 47%
13:00 +29°C° 0 mm 1 mps 740 mmHg 46%
14:00 +29°C° 0 mm 1 mps 739 mmHg 45%
15:00 +29°C° 0 mm 1 mps 739 mmHg 45%
16:00 +27°C° 0 mm 1 mps 739 mmHg 49%
17:00 +26°C° 0 mm 2 mps 739 mmHg 53%
18:00 +24°C° 0 mm 2 mps 740 mmHg 57%
19:00 +23°C° 0 mm 2 mps 740 mmHg 64%
20:00 +21°C° 0 mm 1 mps 741 mmHg 72%
21:00 +20°C° 0 mm 1 mps 741 mmHg 79%
22:00 +19°C° 0 mm 1 mps 741 mmHg 82%
23:00 +19°C° 0 mm 1 mps 741 mmHg 85%

17 Mayo, Lunes

Tiempo Temperatura Precipitaciones Viento Presión Humedad
00:00 +19°C° 0 mm 1 mps 741 mmHg 88%
01:00 +18°C° 0 mm 1 mps 740 mmHg 89%
02:00 +16°C° 0 mm 0 mps 740 mmHg 90%
03:00 +16°C° 0 mm 0 mps 740 mmHg 91%
04:00 +16°C° 0 mm 0 mps 740 mmHg 92%
05:00 +16°C° 0 mm 0 mps 740 mmHg 92%
06:00 +16°C° 0 mm 0 mps 740 mmHg 93%
07:00 +18°C° 0 mm 0 mps 741 mmHg 85%
08:00 +20°C° 0 mm 0 mps 741 mmHg 77%
09:00 +22°C° 0 mm 0 mps 742 mmHg 69%
10:00 +25°C° 0 mm 1 mps 741 mmHg 64%
11:00 +27°C° 0 mm 1 mps 741 mmHg 58%
12:00 +28°C° 0 mm 1 mps 740 mmHg 53%
13:00 +28°C° 0 mm 1 mps 739 mmHg 52%
14:00 +28°C° 0 mm 1 mps 739 mmHg 50%
15:00 +29°C° 0 mm 1 mps 738 mmHg 49%
16:00 +27°C° 0 mm 1 mps 738 mmHg 55%
17:00 +25°C° 0 mm 1 mps 738 mmHg 61%
18:00 +22°C° 0 mm 0 mps 738 mmHg 67%
19:00 +23°C° 0 mm 1 mps 738 mmHg 71%
20:00 +22°C° 0 mm 1 mps 739 mmHg 74%
21:00 +22°C° 0 mm 1 mps 739 mmHg 78%
22:00 +21°C° 0 mm 1 mps 739 mmHg 82%
23:00 +21°C° 0 mm 1 mps 739 mmHg 86%

18 Mayo, Martes

Tiempo Temperatura Precipitaciones Viento Presión Humedad
00:00 +20°C° 0 mm 1 mps 739 mmHg 90%
01:00 +20°C° 0 mm 1 mps 739 mmHg 91%
02:00 +20°C° 0 mm 1 mps 738 mmHg 92%
03:00 +20°C° 0 mm 1 mps 738 mmHg 92%
04:00 +20°C° 0 mm 1 mps 738 mmHg 93%
05:00 +20°C° 0 mm 1 mps 738 mmHg 93%
06:00 +20°C° 0 mm 1 mps 738 mmHg 94%
07:00 +22°C° 0 mm 1 mps 739 mmHg 86%
08:00 +22°C° 0 mm 0 mps 739 mmHg 78%
09:00 +23°C° 0 mm 0 mps 740 mmHg 70%
10:00 +27°C° 0 mm 1 mps 739 mmHg 64%
11:00 +28°C° 0 mm 1 mps 739 mmHg 58%
12:00 +29°C° 0 mm 1 mps 739 mmHg 52%
13:00 +30°C° 0 mm 1 mps 738 mmHg 50%
14:00 +28°C° 0 mm 0 mps 737 mmHg 48%
15:00 +28°C° 0 mm 0 mps 737 mmHg 46%
16:00 +27°C° 0 mm 0 mps 737 mmHg 52%
17:00 +25°C° 0 mm 0 mps 737 mmHg 57%
18:00 +23°C° 0 mm 0 mps 737 mmHg 63%
19:00 +24°C° 0 mm 1 mps 738 mmHg 67%
20:00 +24°C° 0 mm 1 mps 738 mmHg 70%
21:00 +23°C° 0 mm 1 mps 739 mmHg 74%
22:00 +22°C° 0 mm 1 mps 739 mmHg 80%
23:00 +22°C° 0 mm 1 mps 739 mmHg 85%

19 Mayo, Miércoles

Tiempo Temperatura Precipitaciones Viento Presión Humedad
00:00 +21°C° 0 mm 1 mps 739 mmHg 91%
01:00 +21°C° 0 mm 1 mps 739 mmHg 93%
02:00 +21°C° 0 mm 1 mps 739 mmHg 95%
03:00 +20°C° 0 mm 1 mps 739 mmHg 97%
04:00 +21°C° 0 mm 1 mps 739 mmHg 96%
05:00 +19°C° 0 mm 0 mps 739 mmHg 95%
06:00 +19°C° 0 mm 0 mps 739 mmHg 95%
07:00 +22°C° 0 mm 1 mps 740 mmHg 91%
08:00 +23°C° 0 mm 1 mps 740 mmHg 87%
09:00 +24°C° 0 mm 1 mps 741 mmHg 82%
10:00 +25°C° 0 mm 1 mps 740 mmHg 74%
11:00 +27°C° 0 mm 1 mps 740 mmHg 66%
12:00 +29°C° 0 mm 1 mps 739 mmHg 58%
13:00 +29°C° 0 mm 1 mps 739 mmHg 55%
14:00 +29°C° 0 mm 1 mps 738 mmHg 53%
15:00 +30°C° 0 mm 1 mps 737 mmHg 51%
16:00 +28°C° 0 mm 1 mps 737 mmHg 57%
17:00 +26°C° 0 mm 1 mps 737 mmHg 64%
18:00 +25°C° 0 mm 1 mps 738 mmHg 70%
19:00 +24°C° 0 mm 1 mps 738 mmHg 76%
20:00 +23°C° 0 mm 1 mps 738 mmHg 82%
21:00 +22°C° 0 mm 1 mps 739 mmHg 88%
22:00 +21°C° 0 mm 1 mps 739 mmHg 91%
23:00 +21°C° 0 mm 1 mps 739 mmHg 94%
Mostrar más

Necesitamos Su Consentimiento

Meteoprog y nuestros Proveedores de Servicios pueden almacenar y acceder a sus datos personales como cookies, identificadores de dispositivo u otras tecnologías similares de su dispositivo y procesar dichos datos para personalizar contenido y anuncios, además de ofrecer funciones de redes sociales y analizar el tráfico.

  • Almacenar y/o acceder a información en su dispositivo

    Se puede almacenar o acceder a cookies, identificadores de dispositivo u otra información de su dispositivo para los fines anteriormente indicados.

  • Anuncios y contenido personalizados, medición de anuncios y contenido, percepciones del público, y desarrollo de productos

    Los anuncios y el contenido pueden personalizarse en base a su perfil. Se pueden añadir más datos para personalizar mejor los anuncios y contenidos. Se puede medir el rendimiento de los anuncios y contenidos. Se puede obtener la percepción sobre el público que ha visto los anuncios y contenidos. Dichos datos pueden usarse para desarrollar o mejorar la experiencia del usuario, sistemas y software.

Al hacer clic en ‘Estoy De Acuerdo’ usted permitirá el uso de las cookies, identificadores de dispositivo, balizas web u otras tecnologías similares indicadas. Su configuración puede cambiarse desde el navegador de su dispositivo.

Para ciertos fines, los intereses legítimos pueden ser considerados por encima del consentimiento. Puede leer más sobre ello en nuestra Política de Privacidad y Cookies.